Powrót do katalogu

CZ-6A DEB

AktywnySSO
NORAD 54409·DEBRIS·🇨🇳 China

Wystrzelony Nov 11, 2022 z Taiyuan Satellite Launch Center

Loading…

Następne Przeloty (najbliższe 24 godziny)

TLE

ŚwieżeSource: Space-Track

Epoka: Sep 14, 2026, 10:35 UTC

1 54409U 22151EH  26257.44149715  .00001744  00000-0  72076-3 0  9991
2 54409  98.7552 258.2352 0134002 299.7995  58.9913 14.23257866198341

Śledź CZ-6A DEB w czasie rzeczywistym z AllMySat

Download on the App Store